Cloud_Cover
89 70 32 4 5 23 100 100 100 100 100 100 100 100 84 61 21 100 97 57 58 77 6 10 5 5 5 5 6 60 66 76
100 100 94 81 32 76 100 100 100 100 97 100 100 100 98 17 93 12 43 5 5 5 5 5 5 5 4 5 31 63 100 100
100 100 100 100 77 72 100 100 100 100 100 100 100 100 100 100 100 39 86 36 5 5 45 5 5 5 5 6 48 86 100 100
100 92 88 100 99 82 99 100 100 100 100 100 99 100 100 100 100 85 12 43 41 83 76 91 100 58 26 13 95 98 83 88
100 93 67 79 89 93 100 96 100 100 100 100 89 64 82 51 63 6 29 18 100 100 38 13 98 86 72 50 100 100 100 99
100 96 58 94 47 8 55 100 86 100 100 100 100 67 96 89 58 36 67 82 100 100 88 98 97 100 95 77 100 100 100 92
100 90 86 61 69 100 77 100 99 79 100 100 100 100 100 100 100 100 100 69 99 39 58 52 93 100 98 100 100 100 100 88
100 100 93 77 100 87 93 98 100 83 91 98 100 100 85 100 100 82 99 100 32 92 10 99 100 100 100 100 96 100 87 90
100 100 100 89 58 96 58 68 78 90 100 88 100 100 98 100 99 80 71 22 57 37 100 100 100 100 100 100 100 100 100 100
100 100 100 96 100 75 100 96 98 100 100 100 100 100 100 100 100 100 76 100 100 100 100 100 100 100 100 100 100 100 100 100
100 100 100 100 100 44 91 100 99 100 99 100 100 100 100 100 100 100 100 100 100 100 100 100 100 100 100 100 92 100 100 100
100 100 100 100 100 89 45 91 100 100 100 100 100 99 100 92 47 100 99 88 74 82 100 100 100 100 100 100 100 100 100 100
100 100 100 100 100 100 99 98 100 100 100 100 100 92 99 100 33 54 100 99 100 100 100 100 100 100 100 100 100 100 92 62
100 100 100 100 100 100 100 84 100 100 100 94 100 100 87 100 100 97 100 98 99 100 100 100 100 89 87 81 100 100 100 100
100 100 100 100 100 99 100 84 100 100 100 100 100 100 95 100 100 100 100 48 76 100 62 16 22 76 77 56 79 62 85 97
100 100 100 100 94 92 100 100 100 100 100 100 100 100 100 100 100 65 60 61 37 80 37 30 40 30 57 30 5 70 100 98
100 100 100 100 100 100 100 100 100 100 100 100 100 100 100 100 100 100 100 88 5 40 39 67 59 68 100 87 42 69 100 100
100 100 100 100 99 100 100 100 100 100 100 100 100 100 100 61 68 100 100 89 27 13 5 28 9 63 58 22 14 86 100 100
100 100 100 100 96 92 100 100 100 100 100 100 100 100 100 100 100 100 100 100 64 5 41 9 64 48 97 74 99 100 100 100
100 100 100 100 100 100 100 100 100 100 100 100 100 100 100 100 93 41 82 100 100 100 79 24 48 100 100 100 100 100 100 99